Погода в Углеуральском

Россия / Пермский край     58°56′26″N   57°35′13″E
темп.,
°C
ветер,
м/с
пор.,
м/с
влажн.,
%
обл.,
%
осадки,
мм/ч
давл.,
гПа
погр.,
м
6 мая, чт
чт623:00+5з4128467 1.1 999558
02:00+3зюз41190100 0.1 1001488
05:00+2зюз41097100 0.4 1002648
08:00+2з51092100 0.9 10041001
11:00+5з61077100 1.6 10071405
14:00+5з697299 0.4 10101539
17:00+5зсз4106484 0.5 10131618
20:00+6зсз37645 0.0 1013280
7 мая, пт
пт723:00+2з00805 0.0 101510
02:00+1ююз22845 0.0 101622
05:00+1ю23916 0.0 101742
08:00+5ю31184100 0.0 1017311
11:00+14юз5106073 0.0 10161275
14:00+17зюз51054100 0.1 10162093
17:00+15юз41059100 0.1 1016793
20:00+13ю2671100 0.0 1016149
8 мая, сб
сб823:00+9ю3118599 0.1 1017275
02:00+8ю3990100 0.4 1017196
05:00+8ююз2294100 0.8 101842
08:00+9з1388100 0.0 1020241
11:00+11ссз227999 0.0 1021624
14:00+16с115449 0.0 10201377
17:00+16св114349 0.0 10201710
20:00+13вюв115894 0.0 102011
9 мая, вс
вс923:00+9вюв217455 0.0 102010
02:00+8вюв22785 0.0 102114
05:00+7вюв22831 0.0 102121
08:00+12юв37660 0.0 1021272
11:00+17ююв46515 0.0 10201427
14:00+19ю4640100 0.0 10192425
17:00+18ююв464846 0.0 10191001
20:00+16ююв385824 0.0 1020290
10 мая, пн
пн1023:00+11юв237517 0.0 102060
02:00+11юв247370 0.0 102180
05:00+11юв247399 0.0 102187
08:00+12ю2871100 0.0 1022333
11:00+17зюз235588 0.0 1022842
14:00+15сз5570100 0.3 1022683
17:00+7ссз5992100 1.6 1024523
20:00+6сз3793100 2.5 1025726